sat.trackr.live / text

‹ back to catalog

SES-7 (PROTOSTAR 2)

NORAD 34941 · 2009-027A

PAYLOAD ACTIVE UNKNOWN

§ Identity

Operator
Country
SES
Launch date
2009-05-16
Launch site
TYMSC
Launch vehicle
Mass (kg)
RCS (m²)
10.00

Purposes: comms

External: N2YO · Heavens-Above · Gunter

§ Orbital elements

Epoch: 2026-09-14T21:09:38.929248Z

Period
1,436.12 min
Inclination
0.0449°
Eccentricity
0.0001513
Mean motion
1.00269841 rev/d
Perigee alt
35,780.8 km
Apogee alt
35,793.5 km
Semi-major
42,165.3 km
B*
0.0000e+0
RAAN
77.4010°
Arg perigee
148.5506°
Mean anomaly
193.5590°
Rev number
6,352

§ Raw data

SES-7 (PROTOSTAR 2)1 34941U 09027A   26257.88170057 -.00000352  00000+0  00000+0 0  99962 34941   0.0449  77.4010 0001513 148.5506 193.5590  1.00269841 63527

JSON: /api/v1/satellites/34941 · /tle

For live sub-satellite position, see the globe view (requires WebGL).

§ Visibility from observer

Set your observer location to see the next 7 days of passes ≥ 10°. The values pass through the URL so the page stays shareable.

No JS? Fill the form by hand. The geolocation button needs JavaScript.